Wind_Speed
29 29 30 30 31 31 30 29 26 25 23 24 26 26 26 26 25 24 23 23 24 24 25 24 25 25 24 24 22 22 16 13 11 12 15 17 17 19 7 6 16 18 15 14 11
30 31 31 32 32 32 32 30 28 26 25 25 25 25 25 25 25 24 23 23 24 25 24 23 22 23 23 24 23 24 20 19 13 15 14 16 18 21 21 3 12 23 19 13 15
33 32 33 34 34 34 32 31 30 30 28 27 26 24 24 24 20 19 21 21 24 25 24 24 24 23 23 23 22 24 24 24 19 20 17 17 19 21 28 13 14 24 25 25 19
35 34 33 33 35 35 34 32 31 31 30 30 29 27 23 23 20 20 20 22 22 24 24 23 23 25 24 22 25 26 26 28 25 23 23 25 22 25 26 33 25 22 30 26 22
36 35 33 34 34 35 35 34 33 33 31 30 31 28 27 28 23 20 21 22 23 24 23 24 24 26 26 27 27 31 32 32 32 29 28 30 26 29 30 33 36 31 30 29 28
37 36 34 33 32 32 34 32 33 30 29 29 28 28 28 29 28 25 25 25 24 24 26 26 26 26 28 29 28 32 34 36 35 31 32 31 32 28 33 38 38 39 38 37 31
33 34 34 34 31 30 30 31 29 29 29 27 26 27 27 29 29 29 30 28 28 31 31 31 29 30 30 32 33 36 35 38 37 32 33 30 34 31 33 38 43 40 40 42 38
34 34 35 35 36 34 33 31 31 30 31 30 28 29 30 32 31 32 33 33 31 30 28 30 33 33 35 36 36 38 37 40 40 35 36 35 36 41 37 33 44 45 41 39 44
35 37 36 35 34 33 31 31 30 29 29 29 31 30 31 35 36 36 36 34 34 34 35 32 31 33 37 37 36 39 39 42 43 44 42 41 39 44 50 44 47 45 43 47 48
41 38 38 37 35 36 36 35 34 32 32 32 32 32 33 36 36 37 37 40 40 40 40 38 38 41 43 39 38 39 41 43 44 47 47 47 49 47 48 54 59 52 54 54 51
38 41 37 37 39 38 38 37 39 38 38 38 37 39 37 38 39 41 41 42 43 43 43 43 43 44 46 46 46 47 45 44 47 46 48 50 49 50 53 55 58 55 59 64 64
47 43 42 41 41 41 41 41 43 40 41 44 44 42 43 45 44 47 48 46 46 46 45 46 48 50 51 52 49 47 47 48 45 46 43 42 44 47 52 52 56 54 56 59 64
51 51 49 48 46 47 47 46 47 49 47 48 47 45 46 48 50 52 53 51 50 48 47 41 43 50 52 49 48 42 42 40 46 48 48 40 37 44 52 48 49 56 61 65 63
55 58 57 55 54 54 55 53 53 54 52 47 51 51 51 50 50 51 54 53 50 46 44 45 49 49 45 49 50 56 58 59 52 50 50 54 45 46 56 57 59 58 69 67 65
59 56 56 58 54 57 56 57 58 58 54 54 52 54 54 52 50 52 51 53 53 51 51 50 50 53 56 54 54 54 57 58 61 61 56 57 59 56 66 71 71 71 75 79 81
57 56 54 54 54 55 55 57 59 55 52 51 52 55 55 56 54 53 53 58 56 55 55 57 57 60 62 65 67 71 66 64 61 62 62 70 74 66 72 78 83 87 89 93 96
66 63 61 60 61 61 61 65 68 63 60 59 59 60 56 62 65 63 64 66 66 64 63 65 68 68 66 72 72 69 70 73 73 73 74 78 76 77 83 90 94 94 94 99 108
66 64 67 65 62 63 63 64 64 61 67 65 65 65 64 64 66 64 65 68 68 71 75 75 77 79 80 81 79 80 83 83 85 84 82 87 91 94 98 101 104 107 107 108 102
72 74 75 70 72 76 79 70 70 71 72 72 71 70 68 71 73 73 74 73 75 73 75 79 81 85 86 84 83 85 92 97 96 98 100 91 94 97 101 105 108 107 111 111 103
81 79 84 84 83 81 84 77 69 71 77 78 79 76 71 76 77 79 84 80 86 86 84 82 83 82 84 88 94 101 102 102 103 105 106 105 105 103 106 112 111 110 111 110 108
88 85 92 92 88 93 88 84 74 72 80 86 88 80 80 86 83 87 89 92 93 94 99 98 97 96 97 102 109 110 109 111 113 112 114 120 108 103 108 111 113 113 114 114 113
83 93 83 90 96 92 87 80 79 86 81 85 91 90 84 89 94 94 99 103 100 101 103 105 108 105 111 113 117 116 116 117 119 119 124 126 114 112 115 115 116 119 119 114 110
92 99 89 97 99 91 92 95 92 94 97 91 91 93 91 95 102 103 107 108 110 110 109 111 114 117 117 121 126 127 125 126 128 129 128 128 121 119 119 123 127 126 122 115 110
106 100 95 97 99 101 99 99 100 100 99 101 98 103 107 105 108 110 109 113 119 116 116 122 122 124 123 130 130 129 125 126 133 132 129 125 125 120 126 134 135 129 124 120 115
111 107 105 102 103 102 109 107 106 103 106 106 107 110 115 117 118 121 117 119 122 124 128 129 129 133 131 136 136 134 130 128 130 131 133 126 131 130 138 135 134 128 125 122 118
112 115 113 112 112 113 111 107 107 112 114 112 114 116 123 122 124 124 125 130 131 131 137 135 141 138 138 140 140 138 130 129 130 128 134 139 141 143 137 131 127 122 119 116 113
115 121 122 121 112 114 114 111 114 121 126 123 119 125 128 126 131 133 137 136 142 140 139 141 143 146 143 141 141 138 128 135 135 136 142 142 137 135 133 126 119 117 114 111 109
Wind_Direction
244 250 254 255 257 256 258 259 260 263 263 267 268 265 266 270 275 280 284 288 290 293 295 294 293 294 289 286 286 282 282 279 271 284 296 305 307 304 309 267 286 292 296 293 285
244 246 250 253 256 259 259 260 262 265 266 268 272 272 270 271 276 280 284 286 288 291 289 292 290 291 288 285 284 280 283 278 271 281 283 289 294 294 305 219 272 287 309 289 291
242 246 250 253 254 255 257 260 260 261 265 267 268 270 269 271 270 277 282 285 289 290 289 287 285 283 284 283 277 277 281 280 278 279 280 284 282 280 289 284 277 287 292 303 307
243 248 251 254 255 257 255 256 259 262 263 266 269 269 262 264 266 278 276 288 292 289 285 283 282 282 278 276 277 275 278 280 280 274 281 277 279 283 281 286 271 276 289 290 294
241 245 249 254 257 256 256 260 261 263 263 264 268 269 267 266 267 266 274 282 284 287 286 280 280 278 280 280 278 280 281 281 281 282 278 279 275 279 285 283 287 280 277 282 287
243 244 248 247 253 255 255 257 260 261 260 261 264 265 263 267 267 266 265 270 274 275 278 279 281 285 281 281 281 282 284 282 281 283 279 283 282 276 274 281 283 285 285 281 289
241 243 244 245 248 250 252 253 253 255 259 255 258 259 260 262 266 266 265 262 268 275 275 274 276 275 276 278 277 279 280 279 282 280 280 281 282 277 271 276 278 277 280 285 285
242 241 244 246 248 246 248 250 251 254 258 257 258 258 262 263 264 269 266 266 269 272 278 279 274 271 272 270 274 276 281 281 278 275 276 275 276 277 273 272 276 280 281 285 279
240 240 241 240 241 242 242 244 247 252 255 251 256 258 260 266 267 268 266 266 266 270 271 273 274 278 277 274 274 274 271 273 275 275 274 276 268 271 282 276 272 276 280 277 273
237 240 240 234 238 241 241 244 246 247 251 252 253 255 258 263 266 266 266 266 268 269 270 271 271 272 273 273 272 279 277 276 274 274 276 270 275 268 271 279 282 282 280 277 274
240 238 237 239 238 241 245 250 251 250 254 257 256 254 253 262 264 265 267 266 269 273 271 272 270 270 271 272 272 277 280 277 273 280 276 269 268 268 269 271 276 279 283 283 280
245 240 241 244 249 250 249 252 254 256 260 266 264 264 266 264 265 269 270 270 273 276 277 274 273 273 276 279 278 278 274 273 275 274 274 277 278 276 276 279 278 274 274 277 282
246 247 246 243 246 247 248 252 256 259 259 267 265 268 265 267 266 268 272 271 275 281 275 279 281 280 278 279 271 270 278 282 267 269 265 264 266 269 277 280 284 276 278 278 279
250 251 248 249 250 251 252 254 257 260 264 268 270 274 273 273 271 270 271 273 276 279 286 285 283 287 282 273 269 275 284 291 283 274 272 263 258 269 280 286 282 280 289 288 279
249 251 250 252 257 257 257 260 263 263 272 272 271 272 271 273 276 275 279 280 274 282 286 289 289 294 289 281 280 280 287 284 285 289 291 288 284 290 289 290 288 287 287 292 292
247 250 252 253 254 257 261 262 266 267 277 277 271 273 275 267 274 279 275 284 283 287 287 291 292 294 292 294 295 293 288 288 285 289 292 290 294 297 291 289 292 293 291 291 290
248 249 251 256 257 261 261 265 268 273 275 281 279 274 273 275 277 279 280 286 288 288 288 289 290 294 293 295 291 290 291 290 288 289 291 291 291 291 291 293 292 290 288 288 288
245 248 252 253 257 257 260 267 275 274 269 278 279 278 276 277 281 280 290 294 291 292 290 290 292 294 293 295 296 298 297 295 294 294 294 294 297 294 294 295 296 293 292 291 287
249 252 253 256 261 265 267 272 275 274 266 270 277 286 282 279 280 289 297 297 295 294 294 293 292 292 294 294 295 298 298 299 297 296 298 301 298 293 295 293 293 290 289 289 284
257 258 260 260 260 269 270 275 275 268 263 267 279 284 283 288 293 297 300 302 299 299 300 296 293 293 294 296 298 299 299 298 299 296 296 298 297 295 293 290 289 286 288 288 285
256 259 259 260 257 269 268 278 274 276 263 263 278 289 285 285 287 289 299 299 300 300 300 300 300 302 301 302 299 296 299 299 298 298 296 299 297 294 290 289 288 287 287 289 286
253 258 255 255 260 275 268 277 263 274 273 273 275 284 284 287 293 289 290 295 300 299 299 300 299 302 301 300 299 298 299 300 299 296 297 298 296 293 292 291 291 292 291 288 285
262 266 256 258 265 274 269 274 274 274 279 282 281 284 284 282 285 289 293 296 298 300 299 300 299 298 299 298 297 298 298 297 298 298 296 293 296 292 295 293 293 293 292 287 283
266 264 262 264 271 272 274 277 277 278 280 282 280 284 285 282 287 294 294 293 295 295 297 295 297 296 298 296 296 295 295 295 296 295 292 293 291 293 291 292 293 292 290 287 285
264 267 270 268 269 269 272 277 278 278 279 280 282 285 286 284 289 293 294 294 293 292 293 294 293 294 294 294 294 294 295 295 294 292 291 293 290 292 291 292 292 291 289 288 287
261 265 267 270 271 273 273 278 276 277 281 280 283 283 287 285 286 289 288 290 290 290 290 290 291 292 294 292 291 294 297 294 292 291 289 289 292 290 290 290 289 289 289 289 286
259 262 266 270 269 268 271 273 272 275 280 279 279 282 283 283 284 285 285 286 288 289 287 287 288 288 290 291 293 296 292 292 288 288 290 290 290 290 290 291 291 290 289 289 288
Height
10800 10801 10803 10803 10803 10804 10805 10806 10807 10807 10807 10807 10808 10809 10809 10809 10809 10809 10809 10809 10808 10808 10807 10806 10805 10804 10804 10803 10804 10803 10805 10807 10807 10806 10805 10804 10802 10801 10803 10802 10798 10796 10797 10796 10796
10794 10795 10796 10796 10797 10797 10798 10800 10801 10802 10801 10802 10803 10803 10804 10804 10804 10804 10804 10803 10803 10802 10802 10802 10801 10801 10800 10799 10801 10799 10801 10801 10803 10802 10802 10801 10800 10797 10796 10801 10798 10791 10792 10795 10793
10786 10787 10788 10789 10790 10791 10792 10794 10795 10795 10796 10797 10797 10798 10798 10798 10799 10799 10798 10798 10798 10797 10797 10797 10797 10797 10796 10795 10796 10795 10795 10795 10798 10797 10797 10797 10797 10796 10791 10797 10795 10790 10789 10789 10791
10779 10781 10782 10783 10783 10784 10785 10786 10787 10789 10790 10791 10791 10792 10792 10792 10794 10794 10793 10793 10793 10792 10792 10792 10793 10791 10791 10792 10791 10789 10789 10789 10791 10792 10792 10790 10791 10789 10790 10784 10788 10789 10784 10785 10787
10771 10773 10775 10776 10777 10778 10779 10781 10781 10782 10784 10785 10785 10786 10786 10786 10789 10789 10788 10788 10787 10787 10787 10787 10788 10786 10787 10786 10786 10784 10784 10783 10782 10785 10786 10783 10785 10783 10782 10779 10776 10780 10782 10781 10781
10763 10766 10767 10769 10770 10771 10773 10775 10776 10776 10777 10778 10779 10779 10779 10779 10780 10784 10783 10782 10782 10781 10781 10782 10782 10782 10780 10780 10780 10779 10777 10776 10776 10779 10778 10778 10776 10778 10775 10768 10768 10768 10772 10773 10779
10755 10758 10759 10761 10762 10764 10766 10767 10768 10769 10771 10771 10772 10772 10772 10772 10773 10775 10776 10776 10775 10775 10775 10775 10776 10775 10774 10774 10774 10772 10773 10769 10770 10772 10770 10772 10767 10769 10768 10764 10757 10761 10761 10762 10765
10747 10749 10751 10753 10755 10756 10758 10759 10760 10761 10763 10765 10765 10765 10765 10764 10766 10767 10767 10768 10769 10769 10768 10769 10768 10767 10766 10766 10766 10765 10768 10764 10761 10765 10765 10764 10762 10754 10756 10760 10749 10749 10754 10759 10752
10737 10739 10741 10744 10746 10747 10748 10751 10753 10754 10755 10756 10757 10758 10757 10756 10758 10759 10760 10760 10760 10760 10761 10761 10762 10759 10756 10758 10758 10756 10758 10757 10757 10754 10756 10756 10758 10749 10742 10747 10743 10746 10747 10743 10741
10728 10730 10731 10735 10737 10739 10741 10742 10744 10745 10746 10747 10748 10749 10749 10749 10749 10750 10751 10751 10751 10750 10751 10751 10752 10749 10747 10750 10749 10749 10750 10749 10748 10746 10747 10748 10744 10746 10743 10733 10725 10738 10735 10730 10730
10718 10720 10723 10725 10726 10729 10732 10732 10734 10737 10736 10737 10740 10741 10742 10740 10740 10739 10740 10740 10739 10739 10741 10742 10742 10737 10737 10739 10740 10739 10740 10739 10735 10734 10738 10736 10736 10734 10730 10727 10726 10728 10719 10715 10716
10707 10710 10713 10716 10718 10719 10720 10721 10723 10727 10728 10727 10729 10732 10732 10730 10732 10729 10728 10730 10728 10728 10729 10730 10730 10728 10728 10727 10727 10726 10726 10725 10726 10722 10724 10722 10726 10721 10716 10719 10717 10717 10712 10707 10702
10696 10699 10701 10704 10707 10708 10709 10710 10712 10714 10717 10715 10717 10720 10721 10719 10721 10718 10716 10718 10719 10717 10716 10720 10718 10715 10715 10717 10713 10710 10711 10711 10712 10709 10707 10711 10712 10710 10702 10706 10702 10699 10698 10695 10691
10683 10686 10689 10693 10695 10695 10696 10698 10700 10701 10705 10711 10707 10707 10707 10707 10708 10708 10704 10705 10709 10705 10704 10709 10706 10702 10702 10701 10701 10700 10697 10696 10694 10694 10694 10694 10701 10699 10690 10687 10684 10682 10679 10677 10676
10670 10672 10676 10680 10683 10682 10684 10686 10687 10687 10695 10698 10700 10697 10693 10692 10692 10693 10693 10691 10694 10691 10690 10692 10693 10688 10683 10683 10684 10682 10677 10675 10673 10675 10679 10674 10676 10682 10672 10665 10663 10662 10660 10655 10652
10656 10658 10662 10665 10667 10666 10670 10671 10673 10675 10684 10684 10684 10682 10682 10680 10681 10681 10680 10679 10678 10678 10676 10677 10675 10673 10670 10665 10663 10662 10659 10655 10656 10656 10661 10654 10652 10666 10652 10644 10641 10639 10635 10630 10625
10641 10644 10647 10650 10652 10652 10654 10656 10657 10666 10667 10669 10666 10667 10667 10667 10667 10666 10667 10665 10662 10661 10659 10659 10656 10655 10653 10648 10646 10641 10638 10631 10631 10633 10636 10631 10632 10636 10627 10622 10619 10614 10609 10604 10597
10625 10628 10631 10634 10636 10636 10636 10637 10645 10653 10646 10649 10647 10649 10651 10649 10648 10647 10647 10645 10645 10646 10640 10638 10638 10634 10634 10628 10625 10619 10614 10609 10602 10608 10614 10608 10608 10605 10596 10592 10585 10578 10574 10569 10567
10609 10612 10613 10616 10618 10619 10617 10621 10635 10632 10627 10628 10627 10630 10632 10629 10627 10627 10627 10627 10625 10623 10622 10619 10617 10612 10610 10605 10600 10597 10590 10586 10576 10576 10576 10589 10582 10576 10571 10561 10554 10550 10545 10539 10534
10591 10593 10594 10598 10600 10597 10596 10609 10614 10608 10606 10606 10609 10611 10611 10604 10604 10604 10603 10609 10600 10599 10599 10597 10591 10592 10588 10580 10572 10566 10565 10560 10552 10544 10545 10556 10556 10551 10540 10530 10522 10518 10512 10509 10505
10572 10573 10575 10577 10576 10573 10580 10588 10589 10585 10588 10588 10588 10587 10587 10579 10579 10581 10584 10583 10580 10578 10572 10569 10566 10566 10563 10554 10544 10541 10540 10531 10522 10516 10508 10509 10528 10530 10511 10499 10490 10485 10480 10475 10470
10546 10548 10554 10553 10552 10555 10562 10562 10566 10563 10565 10568 10566 10564 10563 10555 10555 10557 10556 10555 10559 10554 10549 10543 10535 10543 10537 10522 10516 10514 10514 10502 10491 10491 10482 10471 10483 10485 10474 10464 10455 10451 10445 10441 10435
10522 10524 10527 10530 10532 10534 10537 10537 10538 10542 10539 10539 10541 10540 10539 10536 10526 10532 10528 10528 10526 10523 10521 10518 10515 10513 10519 10502 10490 10480 10482 10476 10461 10455 10454 10435 10445 10441 10434 10418 10414 10412 10408 10400 10398
10490 10495 10502 10504 10510 10510 10507 10512 10513 10514 10513 10511 10515 10514 10513 10508 10505 10506 10502 10495 10493 10496 10492 10490 10488 10487 10487 10472 10466 10460 10463 10450 10432 10423 10411 10415 10402 10416 10396 10382 10379 10374 10366 10357 10355
10467 10468 10477 10479 10486 10481 10479 10490 10488 10488 10484 10485 10489 10488 10479 10479 10478 10477 10469 10467 10468 10466 10466 10460 10456 10451 10455 10447 10431 10431 10437 10432 10403 10389 10370 10384 10366 10376 10363 10355 10342 10336 10329 10316 10312
10447 10449 10452 10452 10454 10450 10450 10467 10460 10453 10452 10462 10462 10457 10452 10453 10451 10451 10447 10444 10441 10446 10441 10430 10424 10417 10417 10409 10403 10400 10413 10392 10376 10366 10350 10337 10338 10327 10326 10318 10309 10301 10291 10283 10276
10422 10422 10419 10431 10433 10431 10436 10441 10437 10428 10433 10437 10440 10434 10428 10426 10421 10425 10427 10421 10417 10415 10414 10405 10394 10383 10386 10373 10363 10373 10375 10356 10341 10334 10321 10309 10298 10290 10283 10280 10275 10261 10254 10247 10240